#timestamp,LO_Frequency,Hit,StdDev 
1619172015.5,286046998.6,N
1619172035.3,286046998.3,N
1619172055.2,286047000.7,N
1619172075.0,286047000.9,N
1619172075.9,286047000.9,N
1619172095.8,286047000.8,N
1619172115.6,286047000.7,N
1619172135.4,286046998.4,N
1619172155.3,286046999.3,N
1619172175.1,286046998.9,N
1619172195.8,286046999.3,N
1619172215.7,286046998.3,N
1619172235.5,286046998.3,N
1619172255.4,286046998.7,N
1619172275.2,286047001.1,N
1619172295.0,286046998.1,N
1619172295.9,286046998.1,N
1619172315.8,286046998.1,N
1619172335.6,286047000.9,N
1619172355.5,286047000.4,N
1619172375.3,286047001.2,N
1619172395.1,286047001.0,N
1619172415.9,286047000.7,N
1619172435.7,286046998.1,N
1619172455.5,286047000.6,N
1619172475.4,286047000.5,N
1619172495.2,286047001.1,N
1619172515.1,286046998.1,N
1619172516.0,286046998.1,N
1619172535.8,286047001.1,N
1619172555.6,286047000.8,N
1619172575.5,286046998.1,N
1619172595.3,286047000.8,N
1619172615.2,286047001.2,N
1619172635.9,286046999.8,N
1619172655.7,286047000.1,N
1619172675.6,286046999.9,N
1619172695.4,286047002.7,N
1619172715.2,286047000.2,N
1619172735.1,286047000.3,N
1619172736.0,286047000.3,N
1619172755.8,286047002.4,N
1619172775.7,286047001.3,N
1619172795.5,286047003.8,N
1619172815.3,286047002.9,N
1619172835.2,286047003.5,N
1619172855.0,286047003.4,N
1619172855.9,286047003.4,N
1619172875.7,286047003.4,N
1619172895.6,286047003.3,N
1619172915.4,286047003.6,N
1619172935.3,286047003.9,N
1619172955.1,286047003.7,N
1619172956.0,286047003.7,N
1619172975.8,286047003.7,N
1619172995.7,286047004.2,N
1619173015.5,286047003.2,N
1619173035.4,286047004.1,N
1619173055.2,286047003.3,N
1619173075.0,286047002.9,N
1619173075.9,286047002.9,N
1619173095.8,286047002.9,N
1619173115.6,286047003.0,N
1619173135.4,286047003.2,N
1619173155.3,286047003.4,N
1619173175.1,286047006.0,Y
1619173195.9,286047001.3,P
1619173215.7,286047004.3,P
1619173235.5,286047001.3,N
1619173255.4,286047004.1,Y
1619173275.2,286047000.3,P
1619173295.1,286047000.4,N
1619173296.0,286047000.4,N
1619173315.8,286047000.4,N
1619173335.6,286047002.4,N
1619173355.5,286047000.6,N
1619173375.3,286047000.1,N
1619173395.1,286046999.9,N
1619173415.9,286047000.9,N
1619173435.7,286046999.9,N
1619173455.6,286047000.3,N
1619173475.4,286047000.6,N
1619173495.2,286047000.2,N
1619173515.1,286046999.8,N
1619173516.0,286046999.8,N
1619173535.8,286047000.2,N
1619173555.7,286047000.0,N
1619173575.5,286047000.0,N
1619173595.3,286047000.5,N
1619173615.2,286047000.5,N
1619173635.0,286047000.7,N
1619173635.9,286047000.7,N
1619173655.7,286047000.7,N
1619173675.6,286047000.6,N
1619173695.4,286047000.7,N
1619173715.3,286047000.9,N
1619173735.1,286047000.6,N
1619173736.0,286047000.6,N
1619173755.8,286047000.7,N
1619173775.7,286046999.9,N
1619173795.5,286047000.2,N
1619173815.4,286046999.8,N
1619173835.2,286046999.7,N
1619173855.0,286047002.8,Y
1619173855.9,286047002.8,P
1619173875.8,286047000.2,N
1619173895.6,286047000.9,N
1619173915.4,286047000.4,N
1619173935.3,286047001.0,N
1619173955.1,286046999.9,N
1619173975.9,286046999.8,N
1619173995.7,286047002.8,Y
1619174015.5,286047000.8,P
1619174035.4,286047000.8,P
1619174055.2,286047000.3,P
1619174075.1,286047001.0,Y
1619174076.0,286047001.0,P
1619174095.8,286046998.2,P
1619174115.6,286046998.4,N
1619174135.5,286046998.8,N
1619174155.3,286046998.6,N
1619174175.1,286046998.5,N
1619174195.9,286046998.2,N
1619174215.7,286046998.9,N
1619174235.6,286046998.9,N
1619174255.4,286046998.7,N
1619174275.2,286046998.9,N
1619174295.1,286046999.6,N
1619174296.0,286046999.6,N
1619174315.8,286046999.3,N
1619174335.7,286046998.8,N
1619174355.5,286046998.4,N
1619174375.3,286046998.7,N
1619174395.2,286046998.6,N
1619174415.0,286046998.2,N
1619174415.9,286046998.2,N
1619174435.8,286046999.0,N
1619174455.6,286046998.2,N
1619174475.4,286047001.1,N
1619174495.3,286046999.4,N
1619174515.1,286046998.4,N
1619174535.8,286046999.4,N
1619174555.7,286046999.3,N
1619174575.5,286046999.0,N
1619174595.4,286046999.4,N
1619174615.2,286046999.0,N
1619174635.0,286046996.6,Y
1619174635.9,286046996.6,P
1619174655.8,286047000.7,N
1619174675.6,286046998.1,N
1619174695.5,286046998.7,N
1619174715.3,286046998.8,N
1619174735.1,286046996.5,N
1619174755.9,286046998.8,N
1619174775.7,286046998.7,N
1619174795.5,286046999.6,N
1619174815.4,286046999.3,N
1619174835.2,286046996.9,N
1619174855.1,286046999.3,N
1619174856.0,286046999.3,N
1619174875.8,286046999.6,N
1619174895.6,286046999.5,N
1619174915.5,286046999.2,N
1619174935.3,286046998.9,N
1619174955.1,286046999.4,N
1619174975.9,286046999.5,N
1619174995.7,286046996.9,Y
1619175015.6,286046998.4,P
1619175035.4,286046998.9,P
1619175055.2,286046999.2,P
1619175075.1,286046999.2,N
1619175076.0,286046999.2,N
1619175095.8,286046999.2,N
1619175115.6,286046999.1,Y
1619175135.5,286046998.2,P
1619175155.3,286046998.3,P
1619175175.2,286046998.6,P
1619175195.9,286046998.1,Y
1619175215.7,286046999.7,P
1619175235.6,286047000.1,N
1619175255.4,286047002.3,P
1619175275.2,286047000.3,N
1619175295.1,286047000.3,N
1619175296.0,286047000.3,N
1619175315.8,286047000.3,N
1619175335.7,286047000.0,N
1619175355.5,286047000.5,N
1619175375.3,286047000.0,N
1619175395.2,286047000.7,N
1619175415.0,286047000.9,N
1619175415.9,286047000.9,N
1619175435.8,286047000.2,N
1619175455.6,286047000.2,N
1619175475.4,286047000.3,N
1619175495.3,286047001.1,N
1619175515.1,286046998.5,N
1619175535.8,286046998.2,N
1619175555.7,286047000.4,N
1619175575.5,286047000.5,N
1619175595.4,286047001.2,N
